Takotna, AK

10:20 AM AKST on February 25, 2017 (GMT -0900)
Tatalina

Weather History for PATL - January, 2014

Change the Weather History Date:

Saturday, January 11, 2014

  Actual Average Record
Temperature  
Mean Temperature -7 °F -  
Max Temperature -3 °F 6 °F 36 °F (1997)
Min Temperature -12 °F -1 °F -25 °F (2005)
Degree Days  
Heating Degree Days 72    
Moisture  
Dew Point -12 °F    
Average Humidity 84    
Maximum Humidity 87    
Minimum Humidity 78    
Precipitation  
Precipitation 0.00 in - - ()
Sea Level Pressure  
Sea Level Pressure 29.42 in    
Wind  
Wind Speed 4 mph (East)    
Max Wind Speed 6 mph    
Max Gust Speed -    
Visibility 10 miles    
Events Snow    
Averages and records for this station are not official NWS values.
T = Trace of Precipitation, MM = Missing Value Source: NWS Daily Summary

Daily Weather History Graph

Daily Weather History Graph

Search for Another Location

Airport or City:

Trip Planner

Search our weather history database for the weather conditions in past years. The results will help you decide how hot, cold, wet, or windy it might be!

Date:

Astronomy

Jan. 11, 2014 Rise Set
Actual Time 10:44 AM AKST 4:20 PM AKST
Civil Twilight 9:40 AM AKST 5:24 PM AKST
Nautical Twilight 8:38 AM AKST 6:25 PM AKST
Astronomical Twilight 7:43 AM AKST 7:21 PM AKST
Moon 1:29 PM AKST (1/11) 6:39 AM AKST (1/11)
Length of Visible Light 7h 43m
Length of Day
5h 36m
Waxing Gibbous, 84% of the Moon is Illuminated
Jan 11
Waxing Gibbous
Jan 15
Full
Jan 23
Last Quarter
Jan 30
New
Feb 6
First Quarter

Hourly Weather History & Observations

Time (AKST) Temp. Windchill Dew Point Humidity Pressure Visibility Wind Dir Wind Speed Gust Speed Precip Events Conditions
12:55 AM -3.3 °F -11.6 °F -6.2 °F 87% 29.57 in 10.0 mi East 3.5 mph - N/A   Clear
1:55 AM -4.9 °F -15.6 °F -8.0 °F 87% 29.56 in 10.0 mi East 4.6 mph - N/A   Clear
3:55 AM -6.0 °F -14.7 °F -9.0 °F 87% 29.53 in 10.0 mi East 3.5 mph - N/A   Partly Cloudy
4:55 AM -5.4 °F -14.1 °F -8.3 °F 87% 29.52 in 10.0 mi East 3.5 mph - N/A   Partly Cloudy
5:55 AM -5.8 °F -16.7 °F -8.7 °F 87% 29.50 in 10.0 mi East 4.6 mph - N/A   Clear
6:55 AM -6.9 °F -17.9 °F -10.1 °F 86% 29.48 in 10.0 mi SE 4.6 mph - N/A   Partly Cloudy
7:55 AM -8.0 °F -16.9 °F -11.4 °F 85% 29.47 in 10.0 mi SE 3.5 mph - N/A   Partly Cloudy
8:55 AM -8.0 °F -16.9 °F -11.2 °F 86% 29.45 in 10.0 mi ESE 3.5 mph - N/A   Partly Cloudy
9:55 AM -8.3 °F -17.3 °F -11.6 °F 86% 29.44 in 10.0 mi East 3.5 mph - N/A   Partly Cloudy
10:55 AM -8.9 °F -22.1 °F -12.6 °F 83% 29.43 in 10.0 mi East 5.8 mph - N/A   Clear
11:55 AM -9.4 °F -20.9 °F -12.6 °F 86% 29.43 in 10.0 mi East 4.6 mph - N/A   Clear
12:55 PM -8.1 °F -17.1 °F -11.7 °F 84% 29.41 in 10.0 mi ESE 3.5 mph - N/A   Clear
1:55 PM -8.7 °F -20.0 °F -12.3 °F 84% 29.40 in 10.0 mi East 4.6 mph - N/A   Clear
2:20 PM -9.4 °F -20.9 °F -13.0 °F 84% 29.40 in 10.0 mi ESE 4.6 mph - N/A Snow Light Snow Showers
2:35 PM -9.4 °F -20.9 °F -13.0 °F 84% 29.39 in 10.0 mi East 4.6 mph - N/A   Clear
2:55 PM -9.6 °F -22.9 °F -13.4 °F 83% 29.39 in 10.0 mi ESE 5.8 mph - N/A   Clear
3:55 PM -9.9 °F -23.4 °F -13.9 °F 83% 29.38 in 10.0 mi East 5.8 mph - N/A   Partly Cloudy
4:55 PM -9.0 °F -20.4 °F -13.0 °F 83% 29.37 in 10.0 mi East 4.6 mph - N/A   Clear
5:55 PM -9.2 °F -20.7 °F -13.5 °F 81% 29.37 in 10.0 mi East 4.6 mph - N/A   Clear
6:55 PM -9.9 °F -23.4 °F -14.6 °F 80% 29.36 in 10.0 mi ESE 5.8 mph - N/A   Partly Cloudy
7:55 PM -9.8 °F -21.3 °F -14.6 °F 79% 29.35 in 10.0 mi ENE 4.6 mph - N/A   Partly Cloudy
8:55 PM -11.2 °F -23.0 °F -16.2 °F 78% 29.35 in 10.0 mi East 4.6 mph - N/A   Partly Cloudy
9:55 PM -11.9 °F -25.7 °F -16.4 °F 80% 29.34 in 10.0 mi East 5.8 mph - N/A   Partly Cloudy
10:55 PM -11.0 °F -20.4 °F -16.1 °F 78% 29.35 in 10.0 mi East 3.5 mph - N/A   Partly Cloudy
11:55 PM -12.5 °F -22.1 °F -16.8 °F 81% 29.35 in 10.0 mi East 3.5 mph - N/A   Scattered Clouds